Location: Newark
(21.1200°N, 73.4000°E)
Time: 01:01:02
(UTC+00:00)

Vanguard 2 Rocket - Pass Details

Date: 23 January 2020
Orbit: 554 x 3327 km, 32.9° (Epoch: 20 February)

Event Time Altitude Azimuth Distance (km) Brightness Sun altitude
Exits shadow 00:59:27 14° 297° (WNW) 1,858 7.9 -11.1°
Maximum altitude 01:02:55 31° 355° (N) 1,428 7.7 -10.3°
Drops below altitude 10° 01:09:07 10° 55° (NE) 3,126 10.2 -8.9°
Sets 01:13:13 0° 65° (ENE) 4,578 11.3 -8.0°
